Tracking 30922 objects as of 2-Jul-2025
HD Live streaming from Space Station
objects crossing your sky now

FENGYUN 1C DEB

Track FENGYUN 1C DEB now!
10-day predictions


NORAD ID: 31012
Int'l Code: 1999-025BDE
Perigee: 747.2 km
Apogee: 866.2 km
Inclination: 98.9 °
Period: 100.9 minutes
Semi major axis: 7177 km
RCS: 0.0146 m2 (small)
Launch date: May 10, 1999
Source: People's Republic of China (PRC)
Launch site: Taiyaun Space Center, China (TSC)

Note: This is SATELLITE DEBRIS
Your satellite tracking list
Your tracking list is empty




NASA's NSSDC Master Catalog

Two Line Element Set (TLE):
1 31012U 99025BDE 25182.38710175  .00000289  00000-0  13105-3 0  9994
2 31012  98.9267  77.1258 0082897   8.8882  45.5207 14.27669565954022
Source of the keplerian elements: AFSPC